Location: London
(51.5074°N, 0.1278°W)
Time: 08:16:52
(UTC+00:00)

TIGRISAT - Pass Details

Date: 04 October 2020
Orbit: 606 x 688 km, 97.7° (Epoch: 30 October)

Event Time Altitude Azimuth Distance (km) Brightness Sun altitude
Rises 21:09:08 0° 14° (NNE) 2,989 ? -24.9°
Reaches altitude 10° 21:11:21 10° 16° (NNE) 2,086 ? -25.2°
Enters shadow 21:14:14 39° 22° (NNE) 1,003 ? -25.6°
